Weather History for North Adams, MA

Change the Weather History Date:

Sunday, November 27, 2011

  Actual Average Record
Temperature  
Mean Temperature 45 °F -  
Max Temperature 60 °F 42 °F 64 °F (1999)
Min Temperature 30 °F 27 °F 17 °F (1997)
Degree Days  
Heating Degree Days 20    
Moisture  
Dew Point 35 °F    
Average Humidity 66    
Maximum Humidity 92    
Minimum Humidity 36    
Precipitation  
Precipitation 0.00 in - - ()
Sea Level Pressure  
Sea Level Pressure 30.12 in    
Wind  
Wind Speed 3 mph (ESE)    
Max Wind Speed 13 mph    
Max Gust Speed 26 mph    
Visibility 10 miles    
Events      
Averages and records for this station are not official NWS values.
T = Trace of Precipitation, MM = Missing Value Source: NWS Daily Summary

Daily Weather History Graph

Daily Weather History Graph

Search for Another Location

Airport:

Trip Planner

Search our weather history database for the weather conditions in past years. The results will help you decide how hot, cold, wet, or windy it might be!

Date:

Astronomy

Nov. 27, 2011 Rise Set
Actual Time 6:58 AM EST 4:21 PM EST
Civil Twilight 6:27 AM EST 4:53 PM EST
Nautical Twilight 5:52 AM EST 5:27 PM EST
Astronomical Twilight 5:18 AM EST 6:01 PM EST
Moon 9:21 AM EST (11/27) 6:56 PM EST (11/27)
Length of Visible Light 10h 25m
Length of Day
9h 23m
Waxing Crescent, 8% of the Moon is Illuminated
Nov 27
Waxing Crescent
Dec 2
First Quarter
Dec 10
Full
Dec 17
Last Quarter
Dec 24
New

Hourly Weather History & Observations

Time (EST) Temp. Windchill Dew Point Humidity Pressure Visibility Wind Dir Wind Speed Gust Speed Precip Events Conditions
12:52 AM 33.1 °F - 30.9 °F 92% 30.19 in 10.0 mi Calm Calm - N/A   Clear
1:52 AM 30.0 °F - 28.0 °F 92% 30.19 in 8.0 mi Calm Calm - N/A   Clear
2:52 AM 30.0 °F - 28.0 °F 92% 30.19 in 6.0 mi Calm Calm - N/A   Clear
3:52 AM 30.0 °F - 27.0 °F 88% 30.18 in 8.0 mi Calm Calm - N/A   Clear
5:52 AM 30.0 °F - 28.0 °F 92% 30.18 in 9.0 mi Calm Calm - N/A   Clear
6:52 AM 33.1 °F 27.7 °F 28.9 °F 85% 30.17 in 10.0 mi ESE 5.8 mph - N/A   Clear
7:52 AM 35.1 °F - 30.9 °F 85% 30.17 in 10.0 mi Calm Calm - N/A   Clear
8:52 AM 39.0 °F 36.8 °F 33.1 °F 79% 30.15 in 10.0 mi South 3.5 mph - N/A   Clear
9:52 AM 44.1 °F - 35.1 °F 71% 30.14 in 10.0 mi Calm Calm - N/A   Clear
10:52 AM 55.0 °F - 33.1 °F 43% 30.14 in 10.0 mi East 8.1 mph - N/A   Clear
11:52 AM 57.9 °F - 32.0 °F 37% 30.11 in 10.0 mi East 6.9 mph 17.3 mph N/A   Scattered Clouds
12:52 PM 59.0 °F - 32.0 °F 36% 30.09 in 10.0 mi Calm Calm - N/A   Partly Cloudy
1:52 PM 60.1 °F - 37.0 °F 42% 30.07 in 10.0 mi Variable 4.6 mph - N/A   Clear
2:52 PM 59.0 °F - 37.0 °F 44% 30.07 in 10.0 mi Calm Calm - N/A   Clear
3:52 PM 55.0 °F - 37.0 °F 51% 30.07 in 10.0 mi East 8.1 mph - N/A   Clear
4:52 PM 53.1 °F - 37.0 °F 55% 30.08 in 10.0 mi ENE 5.8 mph - N/A   Clear
5:52 PM 53.1 °F - 37.9 °F 57% 30.08 in 10.0 mi ENE 6.9 mph - N/A   Clear
6:52 PM 52.0 °F - 39.9 °F 63% 30.09 in 10.0 mi Variable 3.5 mph - N/A   Clear
7:52 PM 55.9 °F - 42.1 °F 60% 30.08 in 10.0 mi ESE 11.5 mph 21.9 mph N/A   Clear
8:52 PM 55.0 °F - 43.0 °F 64% 30.07 in 10.0 mi Variable 6.9 mph - N/A   Clear
9:52 PM 57.9 °F - 45.0 °F 62% 30.06 in 10.0 mi South 12.7 mph 21.9 mph N/A   Clear
10:52 PM 59.0 °F - 45.0 °F 60% 30.05 in 10.0 mi SSW 9.2 mph 26.5 mph N/A   Clear
11:52 PM 57.9 °F - 46.0 °F 65% 30.04 in 10.0 mi Variable 4.6 mph 23.0 mph N/A   Clear